Location: Knowlton
(51.2333°N, 1.2667°E)
Time: 04:37:51
(UTC+00:00)

Cosmos 921 Rocket - Pass Details

Date: 18 April 2021
Orbit: 572 x 632 km, 75.8° (Epoch: 06 May)

Event Time Altitude Azimuth Distance (km) Brightness Sun altitude
Rises 21:54:56 0° 343° (NNW) 2,920 7.8 -22.5°
Reaches altitude 10° 21:57:23 10° 353° (N) 2,001 6.6 -22.7°
Maximum altitude 22:01:29 34° 59° (ENE) 1,015 4.1 -23.0°
Enters shadow 22:01:48 34° 69° (ENE) 1,023 4.0 -23.0°
